カタログに戻る

BREEZE-M DEB

TANK

運用中HEO
NORAD 29528·DEBRIS·🇷🇺 Russia

打ち上げ Nov 8, 2006 から Baikonur Cosmodrome

Loading…

次のパス (今後24時間)

TLE

最新Source: Space-Track

元期: Sep 14, 2026, 07:06 UTC

1 29528U 06051C   26257.29650735 -.00000045  00000-0  35835-3 0  9994
2 29528  51.2931 207.2409 5964434 163.0767 358.7677  3.64300765264131

AllMySatでBREEZE-M DEBをリアルタイム追跡

Download on the App Store